This is the latest recevied weather packets stored in our database for station/object WD8INF-9. If no packets are shown the sender has not sent any weather packets the latest 1 day(s).
| Time | Temp. | Humidity | Pressure | Rain* | Wind** | Luminosity | Snow |
|---|---|---|---|---|---|---|---|
| 1778000951 | 21.11° C | - | 1007.2 hPa | 0 mm | 0.45 m/s, 225° | - | - |
| 1778000651 | 21.11° C | - | 1007.6 hPa | 0 mm | 0.89 m/s, 197° | - | - |
| 1778000351 | 20.56° C | - | 1007.2 hPa | 0 mm | 0.45 m/s, 194° | - | - |
| 1778000050 | 20.56° C | - | 1007.6 hPa | 0 mm | 0.45 m/s, 186° | - | - |
| 1777999750 | 20° C | - | 1007.3 hPa | 0 mm | 0.45 m/s, 263° | - | - |
| 1777999450 | 20.56° C | - | 1007.3 hPa | 0 mm | 0.45 m/s, 264° | - | - |
| 1777999149 | 20.56° C | - | 1007.5 hPa | 0 mm | 0.45 m/s, 235° | - | - |
| 1777998849 | 20° C | - | 1007.2 hPa | 0 mm | 0.89 m/s, 207° | - | - |
| 1777998549 | 19.44° C | - | 1007.4 hPa | 0 mm | 0.89 m/s, 194° | - | - |
| 1777998249 | 19.44° C | - | 1007.2 hPa | 0 mm | 0.45 m/s, 203° | - | - |
| 1777997949 | 20° C | - | 1007.1 hPa | 0 mm | 0.89 m/s, 210° | - | - |
| 1777997648 | 20° C | - | 1007.5 hPa | 0 mm | 0.89 m/s, 198° | - | - |
| 1777997348 | 20.56° C | - | 1007.4 hPa | 0 mm | 0.89 m/s, 176° | - | - |
| 1777997047 | 20.56° C | - | 1007.2 hPa | 0 mm | 0.89 m/s, 222° | - | - |
| 1777996747 | 20.56° C | - | 1007.2 hPa | 0 mm | 0.89 m/s, 225° | - | - |
| 1777996447 | 21.67° C | - | 1007.2 hPa | 0 mm | 0.89 m/s, 221° | - | - |
| 1777996147 | 22.22° C | - | 1007.3 hPa | 0 mm | 1.34 m/s, 198° | - | - |
| 1777995847 | 23.33° C | - | 1006.9 hPa | 0 mm | 0.89 m/s, 186° | - | - |
| 1777995546 | 23.33° C | - | 1007.2 hPa | 0 mm | 1.34 m/s, 208° | - | - |
| 1777995246 | 23.89° C | - | 1007.2 hPa | 0 mm | 0.89 m/s, 193° | - | - |
| 1777994946 | 23.33° C | - | 1007.3 hPa | 0 mm | 0.45 m/s, 219° | - | - |
| 1777994646 | 22.78° C | - | 1007.1 hPa | 0 mm | 1.34 m/s, 200° | - | - |
| 1777994345 | 23.89° C | - | 1007.5 hPa | 0 mm | 0.89 m/s, 183° | - | - |
| 1777994045 | 23.33° C | - | 1007.1 hPa | 0 mm | 0.89 m/s, 176° | - | - |
| 1777993745 | 23.33° C | - | 1007.3 hPa | 0 mm | 1.34 m/s, 198° | - | - |
* Rain since midnight (hover to see other rain measurements)
** Current wind speed in m/s (hover to see current wind gust speed)